Time,TemperatureF,DewpointF,PressureIn,WindDirection,WindDirectionDegrees,WindSpeedMPH,WindSpeedGustMPH,Humidity,HourlyPrecipIn,Conditions,Clouds,dailyrainin,SoftwareType,DateUTC
2013-09-02 10:52:00,93.0,57.0,29.96,South,178,14.0,19.0,30,0.00,,,0.00,,2013-09-02 17:52:00,
2013-09-02 11:13:00,94.0,56.0,29.96,South,182,19.0,23.0,28,0.00,,,0.00,,2013-09-02 18:13:00,
2013-09-02 11:22:00,94.0,53.0,29.96,South,191,14.0,22.0,25,0.00,,,0.00,,2013-09-02 18:22:00,
2013-09-02 11:52:00,96.0,51.0,29.95,South,186,14.0,21.0,22,0.00,,,0.00,,2013-09-02 18:52:00,
2013-09-02 12:12:00,96.0,51.0,29.94,South,176,13.0,19.0,22,0.00,,,0.00,,2013-09-02 19:12:00,
2013-09-02 12:22:00,98.0,51.0,29.94,South,171,14.0,19.0,21,0.00,,,0.00,,2013-09-02 19:22:00,
2013-09-02 12:52:00,98.0,53.0,29.93,WSW,241,10.0,16.0,22,0.00,,,0.00,,2013-09-02 19:52:00,
2013-09-02 13:22:00,98.0,53.0,29.93,SW,222,7.0,18.0,22,0.00,,,0.00,,2013-09-02 20:22:00,
2013-09-02 13:52:00,99.0,53.0,29.91,South,171,10.0,22.0,22,0.00,,,0.00,,2013-09-02 20:52:00,
2013-09-02 14:23:00,101.0,52.0,29.90,SSW,194,10.0,20.0,20,0.00,,,0.00,,2013-09-02 21:23:00,
2013-09-02 14:55:00,100.0,52.0,29.88,SSW,196,10.0,21.0,20,0.00,,,0.00,,2013-09-02 21:55:00,
2013-09-02 15:23:00,98.0,51.0,29.87,South,190,19.0,24.0,21,0.00,,,0.00,,2013-09-02 22:23:00,
2013-09-02 15:54:00,101.0,52.0,29.85,SSW,199,15.0,22.0,20,0.00,,,0.00,,2013-09-02 22:54:00,
2013-09-02 16:22:00,99.0,52.0,29.85,South,176,17.0,26.0,21,0.00,,,0.00,,2013-09-02 23:22:00,
2013-09-02 16:52:00,98.0,51.0,29.84,South,189,13.0,29.0,21,0.00,,,0.00,,2013-09-02 23:52:00,
2013-09-02 17:11:00,98.0,53.0,29.84,SSW,199,16.0,24.0,22,0.00,,,0.00,,2013-09-03 00:11:00,
2013-09-02 17:21:00,97.0,53.0,29.83,South,180,18.0,26.0,23,0.00,,,0.00,,2013-09-03 00:21:00,
2013-09-02 17:42:00,97.0,53.0,29.83,South,190,21.0,31.0,23,0.00,,,0.00,,2013-09-03 00:42:00,
2013-09-02 17:52:00,96.0,52.0,29.83,South,173,20.0,28.0,23,0.00,,,0.00,,2013-09-03 00:52:00,
2013-09-02 18:11:00,96.0,53.0,29.83,South,180,16.0,27.0,24,0.00,,,0.00,,2013-09-03 01:11:00,
2013-09-02 18:21:00,95.0,52.0,29.84,South,191,19.0,29.0,24,0.00,,,0.00,,2013-09-03 01:21:00,
2013-09-02 18:42:00,95.0,52.0,29.84,South,182,19.0,26.0,24,0.00,,,0.00,,2013-09-03 01:42:00,
2013-09-02 18:52:00,95.0,52.0,29.83,SSW,205,16.0,23.0,24,0.00,,,0.00,,2013-09-03 01:52:00,
2013-09-02 19:12:00,94.0,53.0,29.84,South,182,20.0,25.0,25,0.00,,,0.00,,2013-09-03 02:12:00,
2013-09-02 19:21:00,94.0,54.0,29.84,SSW,205,12.0,20.0,26,0.00,,,0.00,,2013-09-03 02:21:00,
2013-09-02 19:42:00,93.0,53.0,29.84,SW,218,14.0,21.0,26,0.00,,,0.00,,2013-09-03 02:42:00,
2013-09-02 19:52:00,92.0,53.0,29.85,SW,219,10.0,18.0,27,0.00,,,0.00,,2013-09-03 02:52:00,
2013-09-02 20:23:00,91.0,53.0,29.87,SW,220,10.0,18.0,28,0.00,,,0.00,,2013-09-03 03:23:00,
2013-09-02 20:55:00,90.0,53.0,29.88,SSW,203,11.0,20.0,29,0.00,,,0.00,,2013-09-03 03:55:00,
2013-09-02 21:13:00,89.0,54.0,29.88,South,191,16.0,20.0,30,0.00,,,0.00,,2013-09-03 04:13:00,
2013-09-02 21:24:00,89.0,54.0,29.88,South,184,13.0,22.0,31,0.00,,,0.00,,2013-09-03 04:24:00,
2013-09-02 21:53:00,88.0,55.0,29.89,SSW,198,17.0,21.0,33,0.00,,,0.00,,2013-09-03 04:53:00,
2013-09-02 22:12:00,87.0,55.0,29.90,SW,217,15.0,21.0,34,0.00,,,0.00,,2013-09-03 05:12:00,
2013-09-02 22:23:00,87.0,55.0,29.90,SSW,206,16.0,22.0,34,0.00,,,0.00,,2013-09-03 05:23:00,
2013-09-02 22:52:00,86.0,55.0,29.90,South,188,17.0,22.0,35,0.00,,,0.00,,2013-09-03 05:52:00,
2013-09-02 23:12:00,86.0,55.0,29.91,South,186,16.0,22.0,35,0.00,,,0.00,,2013-09-03 06:12:00,
2013-09-02 23:22:00,86.0,55.0,29.90,South,190,16.0,24.0,35,0.00,,,0.00,,2013-09-03 06:22:00,
2013-09-02 23:52:00,86.0,55.0,29.91,South,187,15.0,22.0,35,0.00,,,0.00,,2013-09-03 06:52:00,